W4GHW Weather Reports


Display with metric or nautical units.
time (UTC)temp
F
wind
direction
speed
MPH
gust
MPH
rain 1hr
in
rain 24hr
in
rain mn
in
humidity
%
barometer
mb
20260903123015 75 29 1.0 4.0 0.00 0.00 0.00 92 1018.2
20260903122513 75 26 2.0 4.0 0.00 0.00 0.00 92 1018.2
20260903122011 74 67 1.0 4.0 0.00 0.00 0.00 92 1018.1
20260903121840 75 355 1.0 4.0 0.00 0.00 0.00 92 1019.0
20260903121543 74 5 1.0 4.0 0.00 0.00 0.00 92 1018.1
20260903121041 74 24 0.0 2.0 0.00 0.00 0.00 92 1018.2
20260903120537 74 17 0.0 2.0 0.00 0.00 0.00 92 1018.1
20260903120328 74 17 0.0 2.0 0.00 0.00 0.00 92 1019.0
20260903120033 74 17 0.0 2.0 0.00 0.00 0.00 92 1018.0
20260903115525 74 360 1.0 4.0 0.00 0.00 0.00 92 1017.9
20260903115021 74 10 0.0 4.0 0.00 0.00 0.00 92 1017.9
20260903114832 74 10 1.0 4.0 0.00 0.00 0.00 92 1018.9
20260903114517 73 5 0.0 0.0 0.00 0.00 0.00 92 1017.9
20260903114019 73 5 0.0 2.0 0.00 0.00 0.00 92 1017.7
20260903113511 73 355 0.0 2.0 0.00 0.00 0.00 92 1017.6
20260903113318 74 355 1.0 2.0 0.00 0.00 0.00 92 1018.5
20260903113103 73 355 1.0 2.0 0.00 0.00 0.00 92 1017.6
20260903112503 73 355 0.0 1.0 0.00 0.00 0.00 92 1017.5
20260903112059 73 355 0.0 1.0 0.00 0.00 0.00 92 1017.5
20260903112001 73 355 0.0 1.0 0.00 0.00 0.00 92 1017.5
20260903111826 74 355 0.0 1.0 0.00 0.00 0.00 92 1018.3
20260903111604 73 355 0.0 0.0 0.00 0.00 0.00 91 1017.3
20260903111053 73 355 0.0 0.0 0.00 0.00 0.00 91 1017.2
20260903110551 73 355 0.0 0.0 0.00 0.00 0.00 91 1017.1
20260903110327 74 355 0.0 0.0 0.00 0.00 0.00 91 1018.1
20260903110047 73 355 0.0 0.0 0.00 0.00 0.00 91 1017.1
20260903105545 73 355 0.0 0.0 0.00 0.00 0.00 91 1017.1
20260903105043 73 355 0.0 0.0 0.00 0.00 0.00 91 1017.1
20260903104826 74 355 0.0 0.0 0.00 0.00 0.00 91 1018.1
20260903104559 73 355 0.0 0.0 0.00 0.00 0.00 91 1017.1
20260903104034 74 355 0.0 0.0 0.00 0.00 0.00 91 1017.1
20260903103531 73 355 0.0 0.0 0.00 0.00 0.00 91 1017.1
20260903103326 74 355 0.0 0.0 0.00 0.00 0.00 91 1018.0
20260903103027 74 355 0.0 0.0 0.00 0.00 0.00 91 1017.0
20260903102525 74 355 0.0 0.0 0.00 0.00 0.00 91 1016.9
20260903102023 74 355 0.0 0.0 0.00 0.00 0.00 91 1016.9
20260903101825 74 355 0.0 0.0 0.00 0.00 0.00 91 1017.8
20260903101526 74 355 0.0 0.0 0.00 0.00 0.00 91 1016.8
20260903101019 74 355 0.0 0.0 0.00 0.00 0.00 91 1016.9
20260903100517 74 355 0.0 0.0 0.00 0.00 0.00 90 1016.8
20260903100326 74 355 0.0 0.0 0.00 0.00 0.00 91 1017.7
20260903100015 74 355 0.0 0.0 0.00 0.00 0.00 91 1016.8
20260903095512 74 355 0.0 0.0 0.00 0.00 0.00 91 1016.8
20260903095011 74 355 0.0 0.0 0.00 0.00 0.00 91 1016.7
20260903094825 75 355 0.0 0.0 0.00 0.00 0.00 90 1017.6
20260903094509 74 22 0.0 0.0 0.00 0.00 0.00 90 1016.8
20260903094007 74 22 0.0 0.0 0.00 0.00 0.00 90 1016.8
20260903093504 74 22 0.0 0.0 0.00 0.00 0.00 90 1016.8
20260903093326 75 22 0.0 0.0 0.00 0.00 0.00 90 1017.8
20260903093105 75 22 0.0 0.0 0.00 0.00 0.00 90 1016.9
20260903093003 75 22 0.0 0.0 0.00 0.00 0.00 90 1016.8
20260903092559 75 123 0.0 0.0 0.00 0.00 0.00 90 1016.9
20260903092501 75 123 0.0 0.0 0.00 0.00 0.00 90 1016.9
20260903092057 75 123 0.0 0.0 0.00 0.00 0.00 90 1016.8
20260903091825 75 123 0.0 0.0 0.00 0.00 0.00 90 1017.7
20260903091556 75 123 0.0 0.0 0.00 0.00 0.00 90 1016.8
20260903091501 75 123 0.0 0.0 0.00 0.00 0.00 90 1016.8
20260903091004 75 123 0.0 0.0 0.00 0.00 0.00 90 1016.7
20260903090511 75 123 0.0 0.0 0.00 0.00 0.00 90 1016.7
20260903090326 75 123 0.0 0.0 0.00 0.00 0.00 89 1017.7
20260903090019 75 123 0.0 0.0 0.00 0.00 0.00 89 1016.8
20260903085516 75 123 0.0 0.0 0.00 0.00 0.00 89 1016.8
20260903085022 75 123 0.0 0.0 0.00 0.00 0.00 89 1016.7
20260903084826 76 123 0.0 0.0 0.00 0.00 0.00 89 1017.8
20260903084540 75 123 0.0 0.0 0.00 0.00 0.00 89 1016.8
20260903084027 75 123 0.0 0.0 0.00 0.00 0.00 89 1016.9
20260903083529 75 123 0.0 0.0 0.00 0.00 0.00 89 1016.8
20260903083327 76 123 0.0 0.0 0.00 0.00 0.00 89 1017.9
20260903083031 75 123 0.0 0.0 0.00 0.00 0.00 89 1016.8
20260903082541 76 123 0.0 0.0 0.00 0.00 0.00 89 1016.8
20260903082043 76 123 0.0 0.0 0.00 0.00 0.00 89 1016.8
20260903081826 76 123 0.0 0.0 0.00 0.00 0.00 88 1017.7
20260903081601 76 123 0.0 0.0 0.00 0.00 0.00 88 1016.7
20260903081046 76 123 0.0 0.0 0.00 0.00 0.00 88 1016.7
20260903080553 76 123 0.0 2.0 0.00 0.00 0.00 88 1016.7
20260903080326 76 136 0.0 2.0 0.00 0.00 0.00 88 1017.7
20260903080055 76 136 0.0 2.0 0.00 0.00 0.00 88 1016.7
20260903075559 76 136 0.0 1.0 0.00 0.00 0.00 88 1016.7
20260903075503 76 136 0.0 1.0 0.00 0.00 0.00 88 1016.7
20260903075008 76 136 0.0 1.0 0.00 0.00 0.00 88 1016.7
20260903074826 77 136 0.0 1.0 0.00 0.00 0.00 88 1017.7
20260903074510 76 136 0.0 1.0 0.00 0.00 0.00 88 1016.8
20260903074018 76 136 0.0 1.0 0.00 0.00 0.00 88 1016.8
20260903073521 76 136 0.0 1.0 0.00 0.00 0.00 87 1016.8
20260903073325 77 136 0.0 0.0 0.00 0.00 0.00 87 1017.7
20260903073026 76 136 0.0 1.0 0.00 0.00 0.00 87 1016.8
20260903072528 76 136 0.0 2.0 0.00 0.00 0.00 87 1016.8
20260903072031 76 134 0.0 2.0 0.00 0.00 0.00 87 1016.9
20260903071845 77 139 0.0 2.0 0.00 0.00 0.00 87 1017.9
20260903071511 76 139 0.0 2.0 0.00 0.00 0.00 87 1016.9
20260903071012 77 138 0.0 2.0 0.00 0.00 0.00 86 1016.9
20260903070519 77 122 1.0 3.0 0.00 0.00 0.00 86 1017.0
20260903070323 77 128 1.0 3.0 0.00 0.00 0.00 86 1018.0
20260903070024 77 115 0.0 3.0 0.00 0.00 0.00 86 1017.0
20260903065523 77 109 1.0 2.0 0.00 0.00 0.00 86 1017.1
20260903065022 77 132 0.0 1.0 0.00 0.00 0.00 86 1017.2
20260903064819 77 132 0.0 1.0 0.00 0.00 0.00 86 1018.2
20260903064522 77 132 0.0 1.0 0.00 0.00 0.00 85 1017.1
20260903064033 77 132 0.0 1.0 0.00 0.00 0.00 85 1017.2
20260903063531 77 132 0.0 0.0 0.00 0.00 0.00 85 1017.1
20260903063318 77 132 0.0 0.0 0.00 0.00 0.00 85 1018.2
20260903063008 77 132 0.0 1.0 0.00 0.00 0.00 85 1017.3
20260903062512 77 132 0.0 1.0 0.00 0.00 0.00 85 1017.4
20260903062017 77 132 0.0 2.0 0.00 0.00 0.00 84 1017.4
20260903061816 78 132 0.0 2.0 0.00 0.00 0.00 84 1018.4
20260903061514 77 132 0.0 2.0 0.00 0.00 0.00 84 1017.4
20260903061006 77 130 0.0 3.0 0.00 0.00 0.00 84 1017.4
20260903060503 78 130 1.0 3.0 0.00 0.00 0.00 84 1017.4
20260903060324 78 153 1.0 2.0 0.00 0.00 0.00 84 1018.5
20260903060057 78 136 0.0 2.0 0.00 0.00 0.00 84 1017.4
20260903055556 78 126 0.0 2.0 0.00 0.00 0.00 83 1017.5
20260903055050 78 148 0.0 2.0 0.00 0.00 0.00 83 1017.5
20260903054829 78 148 0.0 2.0 0.00 0.00 0.00 83 1018.5
20260903054553 78 117 0.0 2.0 0.00 0.00 0.00 83 1017.6
20260903054045 78 144 0.0 2.0 0.00 0.00 0.00 83 1017.5
20260903053540 78 121 0.0 2.0 0.00 0.00 0.00 83 1017.6
20260903053317 79 117 0.0 1.0 0.00 0.00 0.00 83 1018.6
20260903053038 78 119 0.0 1.0 0.00 0.00 0.00 82 1017.6
20260903052529 78 139 0.0 3.0 0.00 0.00 0.00 82 1017.8
20260903052028 78 139 0.0 2.0 0.00 0.00 0.00 82 1017.7
20260903051822 79 124 0.0 2.0 0.00 0.00 0.00 82 1018.7
20260903051523 78 142 0.0 2.0 0.00 0.00 0.00 82 1017.6
20260903051018 79 144 0.0 1.0 0.00 0.00 0.00 81 1017.6
20260903050517 79 141 0.0 1.0 0.00 0.00 0.00 81 1017.7
20260903050328 79 141 0.0 1.0 0.00 0.00 0.00 81 1018.7
20260903050034 79 142 0.0 2.0 0.00 0.00 0.00 81 1017.6
20260903045509 79 126 0.0 2.0 0.00 0.00 0.00 81 1017.6
20260903045058 79 121 0.0 3.0 0.00 0.00 0.00 80 1017.4
20260903045006 79 117 0.0 3.0 0.00 0.00 0.00 80 1017.5
20260903044853 80 117 1.0 3.0 0.00 0.00 0.00 80 1018.5
20260903044544 79 123 1.0 3.0 0.00 0.00 0.00 80 1017.6
20260903044035 79 135 0.0 2.0 0.00 0.00 0.00 80 1017.5
20260903043528 79 140 0.0 3.0 0.00 0.00 0.00 79 1017.6
20260903043321 80 117 1.0 4.0 0.00 0.00 0.00 79 1018.5
20260903043024 79 130 1.0 4.0 0.00 0.00 0.00 79 1017.5
20260903042522 79 128 1.0 4.0 0.00 0.00 0.00 79 1017.5
20260903042020 79 146 1.0 4.0 0.00 0.00 0.00 79 1017.4
20260903041826 80 128 1.0 4.0 0.00 0.00 0.00 79 1018.5
20260903041520 80 145 1.0 4.0 0.00 0.00 0.00 78 1017.5
20260903041012 80 123 1.0 3.0 0.00 0.00 0.00 78 1017.5
20260903040508 80 135 1.0 3.0 0.00 0.00 0.00 78 1017.5
20260903040333 80 141 1.0 3.0 0.00 0.00 0.00 78 1018.5
20260903040057 80 144 1.0 4.0 0.00 0.00 0.00 77 1017.5
20260903035550 80 159 1.0 4.0 0.00 0.00 0.00 77 1017.4
20260903035051 80 146 1.0 4.0 0.00 0.00 0.00 77 1017.5
20260903034813 81 136 1.0 4.0 0.00 0.00 0.00 77 1018.5
20260903034526 80 148 1.0 4.0 0.00 0.00 0.00 76 1017.5
20260903034016 80 168 1.0 4.0 0.00 0.00 0.00 76 1017.4
20260903033512 81 127 1.0 4.0 0.00 0.00 0.00 76 1017.4
20260903033326 81 136 2.0 4.0 0.00 0.00 0.00 76 1018.5
20260903033009 81 142 1.0 4.0 0.00 0.00 0.00 75 1017.4
20260903032509 81 138 2.0 5.0 0.00 0.00 0.00 75 1017.4
20260903032058 81 130 1.0 4.0 0.00 0.00 0.00 75 1017.5
20260903032003 81 159 2.0 4.0 0.00 0.00 0.00 75 1017.4
20260903031817 82 138 2.0 4.0 0.00 0.00 0.00 75 1018.4
20260903031557 81 152 1.0 4.0 0.00 0.00 0.00 75 1017.4
20260903031059 81 142 1.0 5.0 0.00 0.00 0.00 74 1017.4
20260903030552 81 137 2.0 6.0 0.00 0.00 0.00 74 1017.5
20260903030326 82 128 3.0 6.0 0.00 0.00 0.00 74 1018.5
20260903030049 81 103 3.0 6.0 0.00 0.00 0.00 74 1017.5
20260903025539 82 169 1.0 8.0 0.00 0.00 0.00 74 1017.4
20260903025034 82 144 3.0 5.0 0.00 0.00 0.00 73 1017.5
20260903024831 82 147 2.0 5.0 0.00 0.00 0.00 73 1018.5
20260903024535 82 124 1.0 4.0 0.00 0.00 0.00 73 1017.5
20260903024033 82 131 1.0 4.0 0.00 0.00 0.00 73 1017.5
20260903023525 82 116 1.0 4.0 0.00 0.00 0.00 73 1017.5
20260903023338 82 160 3.0 4.0 0.00 0.00 0.00 73 1018.5
20260903023055 81 167 2.0 4.0 0.00 0.00 0.00 74 1017.5
20260903022550 81 142 1.0 4.0 0.00 0.00 0.00 75 1017.4
20260903022042 81 154 1.0 3.0 0.00 0.00 0.00 76 1017.5
20260903021842 82 101 1.0 2.0 0.00 0.00 0.00 75 1018.5
20260903021521 81 101 0.0 2.0 0.00 0.00 0.00 75 1017.5
20260903021014 81 96 0.0 2.0 0.00 0.00 0.00 76 1017.6
20260903020514 82 69 0.0 0.0 0.00 0.00 0.00 75 1017.5
20260903020328 82 59 0.0 0.0 0.00 0.00 0.00 75 1018.4
20260903020028 82 59 0.0 0.0 0.00 0.00 0.00 75 1017.5
20260903015507 82 59 0.0 0.0 0.00 0.00 0.00 74 1017.4
20260903015101 82 59 0.0 0.0 0.00 0.00 0.00 74 1017.3
20260903015003 82 59 0.0 0.0 0.00 0.00 0.00 74 1017.2
20260903014813 83 59 0.0 0.0 0.00 0.00 0.00 74 1018.1
20260903014604 82 59 0.0 0.0 0.00 0.00 0.00 74 1017.1
20260903014059 82 59 0.0 0.0 0.00 0.00 0.00 73 1017.1
20260903013549 82 59 0.0 0.0 0.00 0.00 0.00 73 1017.2
20260903013341 83 59 0.0 0.0 0.00 0.00 0.00 73 1018.2
20260903013024 83 59 0.0 0.0 0.00 0.00 0.00 74 1017.2
20260903012524 83 59 0.0 0.0 0.00 0.00 0.00 74 1017.2
20260903012018 83 59 0.0 0.0 0.00 0.00 0.00 73 1017.1
20260903011825 84 59 0.0 0.0 0.00 0.00 0.00 73 1018.1
20260903011516 83 59 0.0 0.0 0.00 0.00 0.00 72 1017.0
20260903011015 84 59 0.0 0.0 0.00 0.00 0.00 72 1017.1
20260903010515 84 59 0.0 0.0 0.00 0.00 0.00 71 1017.0
20260903010331 85 59 0.0 0.0 0.00 0.00 0.00 71 1018.0
20260903010009 84 59 0.0 0.0 0.00 0.00 0.00 71 1017.0
20260903005507 85 59 0.0 0.0 0.00 0.00 0.00 70 1016.9
20260903005100 85 59 0.0 0.0 0.00 0.00 0.00 69 1016.8
20260903005004 85 59 0.0 0.0 0.00 0.00 0.00 69 1016.8
20260903004817 86 59 0.0 0.0 0.00 0.00 0.00 69 1017.7
20260903004506 85 59 0.0 0.0 0.00 0.00 0.00 68 1016.9
20260903004010 86 59 0.0 0.0 0.00 0.00 0.00 67 1016.9
20260903003512 86 59 0.0 1.0 0.00 0.00 0.00 67 1016.8
20260903003324 87 59 0.0 1.0 0.00 0.00 0.00 67 1017.7
20260903003014 86 59 0.0 1.0 0.00 0.00 0.00 66 1016.8
20260903002521 87 59 0.0 0.0 0.00 0.00 0.00 65 1016.7
20260903002026 87 59 0.0 0.0 0.00 0.00 0.00 65 1016.6
20260903001829 87 59 0.0 0.0 0.00 0.00 0.00 64 1017.5
20260903001532 87 59 0.0 0.0 0.00 0.00 0.00 64 1016.5
20260903001030 88 59 0.0 1.0 0.00 0.00 0.00 64 1016.4
20260903000534 88 59 0.0 1.0 0.00 0.00 0.00 63 1016.3
20260903000318 88 59 0.0 2.0 0.00 0.00 0.00 63 1017.3
20260903000042 88 59 0.0 2.0 0.00 0.00 0.00 62 1016.3
20260902235540 88 59 0.0 2.0 0.00 0.00 0.00 62 1016.4
20260902235043 89 65 0.0 2.0 0.00 0.00 0.00 60 1016.4
20260902234823 90 66 0.0 2.0 0.00 0.00 0.00 61 1017.3
20260902234550 89 66 0.0 2.0 0.00 0.00 0.00 60 1016.4
20260902234054 89 77 0.0 2.0 0.00 0.00 0.00 59 1016.4
20260902233558 90 64 0.0 3.0 0.00 0.00 0.00 58 1016.4
20260902233503 90 64 0.0 4.0 0.00 0.00 0.00 58 1016.4
20260902233330 90 64 0.0 4.0 0.00 0.00 0.00 58 1017.4
20260902233103 90 53 0.0 4.0 0.00 0.00 0.00 58 1016.3
20260902232555 90 91 1.0 3.0 0.00 0.00 0.00 57 1016.4
20260902232050 91 90 0.0 4.0 0.00 0.00 0.00 56 1016.4
20260902231832 91 31 0.0 4.0 0.00 0.00 0.00 57 1017.3
20260902231553 91 92 0.0 4.0 0.00 0.00 0.00 56 1016.3
20260902231044 91 84 0.0 4.0 0.00 0.00 0.00 56 1016.3
20260902230552 91 67 0.0 4.0 0.00 0.00 0.00 56 1016.3
20260902230317 92 107 1.0 5.0 0.00 0.00 0.00 55 1017.3
20260902230049 91 85 0.0 5.0 0.00 0.00 0.00 55 1016.2
20260902225542 92 37 1.0 5.0 0.00 0.00 0.00 55 1016.3
20260902225043 92 84 0.0 4.0 0.00 0.00 0.00 56 1016.4
20260902224819 92 78 0.0 8.0 0.00 0.00 0.00 55 1017.4
20260902224541 92 72 2.0 8.0 0.00 0.00 0.00 55 1016.5
20260902224034 92 86 2.0 5.0 0.00 0.00 0.00 54 1016.4
20260902223530 92 107 2.0 6.0 0.00 0.00 0.00 54 1016.4
20260902223344 92 73 1.0 6.0 0.00 0.00 0.00 56 1017.4
20260902223007 91 34 2.0 6.0 0.00 0.00 0.00 55 1016.4
20260902222505 91 79 2.0 4.0 0.00 0.00 0.00 56 1016.5
20260902222056 91 38 2.0 4.0 0.00 0.00 0.00 55 1016.6
20260902222000 91 122 2.0 4.0 0.00 0.00 0.00 54 1016.6
20260902221848 92 112 2.0 4.0 0.00 0.00 0.00 56 1017.6
20260902221547 91 30 1.0 4.0 0.00 0.00 0.00 56 1016.6
20260902221033 92 43 2.0 5.0 0.00 0.00 0.00 55 1016.6
20260902220522 92 37 1.0 6.0 0.00 0.00 0.00 55 1016.6
20260902220321 93 107 1.0 6.0 0.00 0.00 0.00 55 1017.6
20260902220018 92 36 3.0 6.0 0.00 0.00 0.00 54 1016.5
20260902215517 93 138 2.0 6.0 0.00 0.00 0.00 54 1016.4
20260902215012 93 43 2.0 8.0 0.00 0.00 0.00 53 1016.4
20260902214830 93 108 2.0 8.0 0.00 0.00 0.00 53 1017.4
20260902214510 93 66 4.0 8.0 0.00 0.00 0.00 53 1016.3
20260902214006 93 97 1.0 6.0 0.00 0.00 0.00 53 1016.5
20260902213504 93 360 2.0 5.0 0.00 0.00 0.00 52 1016.4
20260902213319 94 19 3.0 9.0 0.00 0.00 0.00 52 1017.5
20260902213059 93 99 2.0 9.0 0.00 0.00 0.00 52 1016.6
20260902212554 93 20 2.0 9.0 0.00 0.00 0.00 54 1016.5
20260902212050 93 60 1.0 10.0 0.00 0.00 0.00 53 1016.6
20260902211824 93 81 2.0 10.0 0.00 0.00 0.00 54 1017.6
20260902211555 93 40 4.0 10.0 0.00 0.00 0.00 52 1016.6
20260902211040 93 85 4.0 10.0 0.00 0.00 0.00 53 1016.7
20260902210540 93 121 2.0 9.0 0.00 0.00 0.00 52 1016.7
20260902210316 94 14 3.0 9.0 0.00 0.00 0.00 51 1017.6
20260902210036 93 79 3.0 9.0 0.00 0.00 0.00 51 1016.7
20260902205529 93 51 2.0 8.0 0.00 0.00 0.00 52 1016.7
20260902205032 93 74 3.0 8.0 0.00 0.00 0.00 52 1016.7
20260902204825 93 82 3.0 8.0 0.00 0.00 0.00 53 1017.8
20260902204524 93 57 2.0 8.0 0.00 0.00 0.00 52 1016.8
20260902204022 93 38 3.0 6.0 0.00 0.00 0.00 53 1016.8
20260902203517 93 51 1.0 8.0 0.00 0.00 0.00 52 1016.7
20260902203319 93 13 2.0 8.0 0.00 0.00 0.00 52 1017.7
20260902203013 93 96 3.0 8.0 0.00 0.00 0.00 54 1016.9
20260902202510 93 9 2.0 9.0 0.00 0.00 0.00 51 1016.9
20260902202006 93 105 3.0 9.0 0.00 0.00 0.00 53 1016.9
20260902201831 93 84 3.0 9.0 0.00 0.00 0.00 53 1018.0
20260902201600 93 109 4.0 9.0 0.00 0.00 0.00 51 1017.0
20260902201505 93 117 4.0 8.0 0.00 0.00 0.00 52 1017.0
20260902201057 93 122 2.0 9.0 0.00 0.00 0.00 54 1017.0
20260902200556 93 165 3.0 9.0 0.00 0.00 0.00 53 1017.1
20260902200325 93 53 4.0 9.0 0.00 0.00 0.00 53 1018.1
20260902200052 93 40 1.0 9.0 0.00 0.00 0.00 55 1017.1
20260902195555 93 61 1.0 9.0 0.00 0.00 0.00 54 1017.2
20260902195055 93 111 2.0 8.0 0.00 0.00 0.00 53 1017.2
20260902194832 93 71 3.0 8.0 0.00 0.00 0.00 52 1018.2
20260902193540 93 107 1.0 8.0 0.00 0.00 0.00 53 1017.4
20260902193331 93 116 3.0 8.0 0.00 0.00 0.00 51 1018.4
20260902193044 93 43 3.0 8.0 0.00 0.00 0.00 53 1017.5
20260902192536 92 87 1.0 7.0 0.00 0.00 0.00 57 1017.6
20260902192035 92 132 2.0 6.0 0.00 0.00 0.00 55 1017.7
20260902191847 92 37 3.0 6.0 0.00 0.00 0.00 54 1018.7
20260902191515 92 115 1.0 5.0 0.00 0.00 0.00 55 1017.8
20260902191006 91 17 2.0 7.0 0.00 0.00 0.00 54 1017.8
20260902190603 92 150 3.0 8.0 0.00 0.00 0.00 52 1017.8
20260902190502 92 53 2.0 8.0 0.00 0.00 0.00 53 1018.0
20260902190318 93 20 2.0 10.0 0.00 0.00 0.00 54 1018.9
20260902190056 93 51 3.0 10.0 0.00 0.00 0.00 53 1017.9
20260902185552 93 130 4.0 10.0 0.00 0.00 0.00 53 1018.0
20260902185048 93 138 3.0 9.0 0.00 0.00 0.00 51 1018.1
20260902184828 93 113 4.0 9.0 0.00 0.00 0.00 52 1019.1
20260902184548 92 132 4.0 9.0 0.00 0.00 0.00 53 1018.0
20260902184044 92 49 2.0 9.0 0.00 0.00 0.00 55 1018.0
20260902183542 92 70 3.0 9.0 0.00 0.00 0.00 55 1018.1
20260902183322 93 123 3.0 6.0 0.00 0.00 0.00 54 1019.1
20260902183051 92 112 1.0 6.0 0.00 0.00 0.00 57 1018.2
20260902182531 92 79 1.0 4.0 0.00 0.00 0.00 54 1018.3
20260902182028 93 42 1.0 8.0 0.00 0.00 0.00 54 1018.2
20260902181832 93 340 2.0 8.0 0.00 0.00 0.00 56 1019.1
20260902181526 92 128 1.0 8.0 0.00 0.00 0.00 52 1018.2
20260902181030 92 40 2.0 6.0 0.00 0.00 0.00 54 1018.2
20260902180520 92 175 2.0 10.0 0.00 0.00 0.00 54 1018.2
20260902180320 92 15 2.0 10.0 0.00 0.00 0.00 54 1019.2
20260902180016 92 48 2.0 7.0 0.00 0.00 0.00 55 1018.3
20260902175512 92 136 2.0 7.0 0.00 0.00 0.00 53 1018.4
20260902175008 92 34 2.0 6.0 0.00 0.00 0.00 55 1018.4
20260902174831 92 49 3.0 6.0 0.00 0.00 0.00 55 1019.3
20260902174503 92 117 2.0 7.0 0.00 0.00 0.00 57 1018.4
20260902174057 92 23 2.0 7.0 0.00 0.00 0.00 57 1018.4
20260902173559 91 119 2.0 4.0 0.00 0.00 0.00 56 1018.5
20260902173326 91 112 1.0 5.0 0.00 0.00 0.00 60 1019.5
20260902173056 91 109 2.0 5.0 0.00 0.00 0.00 59 1018.6
20260902172549 90 101 2.0 4.0 0.00 0.00 0.00 59 1018.6
20260902172042 91 331 2.0 8.0 0.00 0.00 0.00 60 1018.8
20260902171837 92 71 2.0 8.0 0.00 0.00 0.00 59 1019.8
20260902171519 91 117 3.0 8.0 0.00 0.00 0.00 58 1019.0
20260902171015 92 125 4.0 8.0 0.00 0.00 0.00 58 1019.1
20260902170505 91 161 2.0 7.0 0.00 0.00 0.00 62 1019.2
20260902170322 92 112 4.0 8.0 0.00 0.00 0.00 60 1020.2
20260902170059 91 140 0.0 8.0 0.00 0.00 0.00 60 1019.4
20260902170002 91 37 1.0 8.0 0.00 0.00 0.00 59 1019.3
20260902165552 91 71 3.0 8.0 0.00 0.00 0.00 58 1019.4
20260902165043 91 118 4.0 8.0 0.00 0.00 0.00 60 1019.4
20260902164847 91 146 5.0 11.0 0.00 0.00 0.00 62 1020.4
20260902164521 90 104 2.0 11.0 0.00 0.00 0.00 62 1019.6
20260902164017 89 159 1.0 9.0 0.00 0.00 0.00 61 1019.5
20260902163514 89 21 2.0 9.0 0.00 0.00 0.00 63 1019.6
20260902163318 89 14 4.0 9.0 0.00 0.00 0.00 62 1020.7
20260902163009 88 341 0.0 6.0 0.00 0.00 0.00 65 1019.6
20260902162507 89 65 2.0 6.0 0.00 0.00 0.00 63 1019.6
20260902162005 88 273 1.0 6.0 0.00 0.00 0.00 65 1019.6
20260902161830 89 40 3.0 8.0 0.00 0.00 0.00 64 1020.6
20260902161503 88 315 1.0 8.0 0.00 0.00 0.00 63 1019.6
20260902161059 88 317 3.0 8.0 0.00 0.00 0.00 63 1019.8
20260902161002 88 355 2.0 6.0 0.00 0.00 0.00 63 1019.8
20260902160557 89 347 2.0 6.0 0.00 0.00 0.00 61 1019.8
20260902160322 89 336 2.0 5.0 0.00 0.00 0.00 61 1020.8
20260902160058 89 49 2.0 5.0 0.00 0.00 0.00 61 1019.9
20260902155551 89 66 2.0 6.0 0.00 0.00 0.00 62 1019.8
20260902155047 89 30 3.0 6.0 0.00 0.00 0.00 63 1019.8
20260902154813 89 61 4.0 5.0 0.00 0.00 0.00 63 1020.9
20260902154553 89 5 2.0 5.0 0.00 0.00 0.00 63 1019.8
20260902154045 89 222 1.0 5.0 0.00 0.00 0.00 63 1019.9
20260902153540 89 103 1.0 6.0 0.00 0.00 0.00 64 1020.0
20260902153324 89 30 2.0 6.0 0.00 0.00 0.00 66 1021.0
20260902153032 88 128 2.0 6.0 0.00 0.00 0.00 65 1020.1
20260902152527 88 113 0.0 4.0 0.00 0.00 0.00 66 1020.0
20260902152029 87 46 2.0 4.0 0.00 0.00 0.00 68 1020.0
20260902151826 87 71 2.0 4.0 0.00 0.00 0.00 66 1020.9
20260902151532 87 355 2.0 4.0 0.00 0.00 0.00 68 1020.0
20260902151021 86 225 2.0 4.0 0.00 0.00 0.00 66 1019.9
20260902150521 86 323 1.0 5.0 0.00 0.00 0.00 70 1019.8
20260902150329 86 329 2.0 5.0 0.00 0.00 0.00 69 1020.9
20260902150018 86 323 2.0 7.0 0.00 0.00 0.00 70 1019.8
20260902145512 85 239 2.0 7.0 0.00 0.00 0.00 71 1019.8
20260902145011 85 265 1.0 5.0 0.00 0.00 0.00 72 1019.8
20260902144826 85 282 2.0 5.0 0.00 0.00 0.00 74 1020.8
20260902144606 84 221 0.0 6.0 0.00 0.00 0.00 76 1020.0
20260902144501 84 12 0.0 6.0 0.00 0.00 0.00 76 1019.9
20260902144057 83 340 1.0 6.0 0.00 0.00 0.00 75 1019.8
20260902143555 83 317 1.0 4.0 0.00 0.00 0.00 77 1019.8
20260902143327 84 317 1.0 4.0 0.00 0.00 0.00 78 1020.7
20260902143049 83 287 1.0 6.0 0.00 0.00 0.00 78 1019.7
20260902142545 82 281 1.0 6.0 0.00 0.00 0.00 79 1019.8
20260902142040 82 298 3.0 6.0 0.00 0.00 0.00 79 1019.8
20260902141846 82 276 3.0 5.0 0.00 0.00 0.00 80 1020.7
20260902141515 82 344 2.0 5.0 0.00 0.00 0.00 82 1019.8
20260902141013 81 294 0.0 4.0 0.00 0.00 0.00 84 1019.7
20260902140512 80 22 1.0 4.0 0.00 0.00 0.00 83 1019.7
20260902140327 81 285 2.0 4.0 0.00 0.00 0.00 83 1020.7
20260902140011 80 321 1.0 4.0 0.00 0.00 0.00 84 1019.8
20260902135505 80 318 1.0 4.0 0.00 0.00 0.00 84 1019.8
20260902135003 80 247 1.0 4.0 0.00 0.00 0.00 84 1019.8
20260902134829 80 321 2.0 4.0 0.00 0.00 0.00 84 1020.7
20260902134600 80 318 2.0 4.0 0.00 0.00 0.00 84 1019.6
20260902134501 80 298 2.0 4.0 0.00 0.00 0.00 84 1019.6
20260902134058 80 348 0.0 4.0 0.00 0.00 0.00 85 1019.7
20260902133555 79 320 2.0 4.0 0.00 0.00 0.00 85 1019.7
20260902133317 80 5 1.0 3.0 0.00 0.00 0.00 85 1020.6
20260902133023 79 300 1.0 3.0 0.00 0.00 0.00 85 1019.7
20260902132524 79 342 1.0 5.0 0.00 0.00 0.00 86 1019.7
20260902132019 79 294 2.0 5.0 0.00 0.00 0.00 85 1019.6
20260902131824 80 340 2.0 3.0 0.00 0.00 0.00 85 1020.6
20260902131519 79 339 1.0 3.0 0.00 0.00 0.00 85 1019.7
20260902131021 79 355 0.0 2.0 0.00 0.00 0.00 86 1019.6
20260902130523 79 345 0.0 3.0 0.00 0.00 0.00 86 1019.5
20260902130317 79 347 0.0 3.0 0.00 0.00 0.00 87 1020.6
20260902130030 78 12 1.0 5.0 0.00 0.00 0.00 86 1019.6
20260902125525 78 351 1.0 5.0 0.00 0.00 0.00 87 1019.6
20260902125025 78 340 2.0 4.0 0.00 0.00 0.00 88 1019.6
20260902124824 78 355 2.0 4.0 0.00 0.00 0.00 89 1020.6
20260902124527 78 311 1.0 4.0 0.00 0.00 0.00 89 1019.6
20260902124025 77 317 2.0 4.0 0.00 0.00 0.00 90 1019.5
20260902123521 76 344 2.0 4.0 0.00 0.00 0.00 91 1019.5
20260902123324 77 326 3.0 4.0 0.00 0.00 0.00 91 1020.5